Location: Poughquag
(41.6090°N, 73.6820°W)
Time: 11:08:45
(UTC-04:00)

Vanguard 1 - Pass Details

Date: 02 June 2020
Orbit: 650 x 3833 km, 34.2° (Epoch: 07 July)

Event Time Altitude Azimuth Distance (km) Brightness Sun altitude
Rises 06:27:19 0° 242° (WSW) 5,832 13.4 10.1°
Reaches altitude 10° 06:30:34 10° 239° (WSW) 5,168 13.2 10.6°
Maximum altitude 06:47:10 64° 162° (SSE) 3,719 13.2 13.6°
Drops below altitude 10° 07:10:17 10° 89° (E) 6,879 16.3 17.7°
Sets 07:15:27 0° 87° (E) 7,767 16.2 18.7°
